Regional Weather Roundup
Issued by NWS

Home | Current Version | Previous Version | Graphics & Text | Print | Product List | Glossary On
Versions: 1 2 3 4 5 6 7 8 9 10 11 12 13 14 15 16 17 18 19 20 21 22 23 24 25 26 27
000
ASUS45 KBOU 211007
RWRCO

WEATHER ROUNDUP FOR COLORADO
NATIONAL WEATHER SERVICE DENVER/BOULDER CO
400 AM MDT MON AUG 21 2017

NOTE: "FAIR" INDICATES FEW OR NO CLOUDS BELOW 12000 FEET WITH NO
SIGNIFICANT WEATHER AND/OR OBSTRUCTIONS TO VISIBILITY.

COZ001>005-013-030-031-211100-
...NORTHWEST COLORADO...

CITY           SKY/WX    TMP DP  RH WIND       PRES   REMARKS
CRAIG          FAIR      47  39  74 CALM      30.23R
HAYDEN         FAIR      54  40  59 E10       30.26S
MEEKER         MOCLDY    58  40  51 NE9       30.24R
RABBIT EARS PA FAIR      52  34  50 SW3       30.53R
STEAMBOAT SPGS FAIR      48  39  70 W3        30.27S
WALDEN         FAIR      39  32  75 CALM      30.37R
$$

COZ006>008-011-211100-
...WEST CENTRAL VALLEYS...

CITY           SKY/WX    TMP DP  RH WIND       PRES   REMARKS
GRAND JUNCTION FAIR      70  37  29 E5        30.09S
MONTROSE       FAIR      66  41  40 E8        30.19S
EAGLE          FAIR      53  37  54 SE5       30.29R
RIFLE          FAIR      60  37  42 S3        30.17S
DELTA          FAIR      64  40  41 NE6       30.15R
NUCLA          FAIR      61  41  48 E9        30.25S
$$

COZ017>023-064>068-211100-
...SOUTHWEST COLORADO...

CITY           SKY/WX    TMP DP  RH WIND       PRES   REMARKS
DURANGO        CLOUDY    58  45  62 CALM      30.27F
CORTEZ         FAIR      59  51  75 SE5       30.22F
PAGOSA SPRINGS FAIR      54  41  61 CALM      30.34F
TELLURIDE      FAIR      55  38  52 CALM      30.44F
WOLF CREEK PAS MOCLDY    45  34  65 CALM      30.65F
$$

COZ009-010-012-014-032>034-037-058>063-211100-
...CENTRAL COLORADO...

CITY           SKY/WX    TMP DP  RH WIND       PRES   REMARKS
ASPEN          FAIR      52  39  61 CALM      30.32S
BUENA VISTA    FAIR      52  40  63 NW9       30.35F
COPPER MTN     FAIR      52  32  46 S9        30.63F
BERTHOUD PASS  FAIR      45  37  76 W16       30.65S
COTTONWOOD PAS FAIR      55  36  47 W7        30.47F
GUNNISON       FAIR      52  40  63 NE5       30.34F
KREMMLING      FAIR      46  37  71 CALM      30.34S
LEADVILLE      FAIR      42  36  79 E6        30.48F
MONARCH PASS   FAIR      45  34  65 SW15      30.72S
SALIDA         FAIR      60  43  52 NW9       30.39F
SUNLIGHT       FAIR      50  30  46 S5        30.56F
WILKERSON PASS FAIR      46  36  66 W9        30.58F
$$

COZ069>075-211100-
...SAN LUIS VALLEY/SANGRE DE CRISTO MOUNTAINS...

CITY           SKY/WX    TMP DP  RH WIND       PRES   REMARKS
ALAMOSA        FAIR      54  45  71 CALM      30.31F
DEL NORTE      FAIR      55  41  59 W9        30.34F
LA VETA PASS   NOT AVBL
SAGUACHE       FAIR      54  41  62 N9        30.34S
$$

COZ035-036-038>040-211100-
...NORTHERN COLORADO FRONT RANGE...

CITY           SKY/WX    TMP DP  RH WIND       PRES   REMARKS
DENVER INTL AP MOCLDY    69  43  38 SW13      30.10S
DMNS CITY PARK   N/A     68  44  42 SE7       30.10F
AURORA         MOCLDY    65  44  47 S6        30.12F
FRONT RANGE AP FAIR      68  45  42 SW12G21   30.12S
ERIE MUNI ARPT FAIR      56  46  70 SW3       30.13S
BOULDER MUN AP FAIR      63  45  51 CALM      30.09S
CENTENNIAL     FAIR      68  42  38 CALM      30.13F
BROOMFIELD     NOT AVBL
FORT COLLINS   FAIR      57  49  74 N6        30.09S
LONGMONT       FAIR      58  47  66 NW6       30.10S
$$

COZ041-046-047-076>085-087-088-211100-
...PIKES PEAK/PALMER DIVIDE AND SOUTHERN FOOTHILLS...

CITY           SKY/WX    TMP DP  RH WIND       PRES   REMARKS
COLO. SPRINGS  FAIR      66  44  45 N10       30.17S
A. F. ACADEMY  FAIR      67  40  38 N3        30.19S
SCHRIEVER AFB  FAIR      67  39  35 NW12      30.16F
CHEYENNE MTN   MOCLDY    65  39  38 W6        30.16F
ELLICOTT       NOT AVBL
FALCON         FAIR      63  39  41 NW13      30.22S
FORT CARSON    FAIR      61  45  55 N14       30.12F
LIMON          FAIR      55  48  77 N6        30.10F
MONUMENT HILL  FAIR      59  41  51 SW9       30.24F
CANON CITY     CLEAR     70  48  46 W14G24    30.11F
WALSENBURG     FAIR      68  45  42 SW7       30.17R
TRINIDAD       FAIR      64  51  62 W12       30.17S
$$

COZ042>045-048>051-090-091-211100-
...NORTHEAST COLORADO...

CITY           SKY/WX    TMP DP  RH WIND       PRES   REMARKS
GREELEY ARPT   FAIR      57  54  89 N3        30.07
AKRON          FAIR      65  47  52 W12       30.04F
BURLINGTON     FAIR      64  61  90 SW8       30.02F
WRAY           NOT AVBL
YUMA           FAIR      59  48  67 CALM      30.01F
STERLING       FAIR      63  63 100 CALM      30.01S
HOLYOKE        FOG       63  61  94 CALM      29.99F VSB 1/2
FORT MORGAN    FAIR      62  51  69 CALM      30.05F
$$

COZ086-089-092>099-211100-
...SOUTHEAST COLORADO...

CITY           SKY/WX    TMP DP  RH WIND       PRES   REMARKS
PUEBLO         FAIR      64  47  53 NW6       30.05F
LA JUNTA       FAIR      70  49  47 SW12      30.04S
LAMAR          FAIR      71  58  63 SW13      29.99S
SPRINGFIELD      N/A     67  58  72 SW9       30.09F
$$




USA.gov is the U.S. government's official web portal to all federal, state and local government web resources and services.